Location: Arrakis Observatory
(44.1122°N, 95.7153°W)
Time: 09:55:22
(UTC-05:00)

Iridium 35 - Visible Passes

Search period start: 06 May 2016 00:00
Search period end: 16 May 2016 00:00
Orbit: 776 x 779 km, 86.4° (Epoch: 05 May)

Date Brightness Start Highest point End Pass type
(mag) Time Alt. Az. Time Alt. Az. Time Alt. Az.
08 May 7.8 05:20:40 10° NNE 05:24:44 22° ENE 05:28:46 10° SE visible
09 May 8.2 04:48:33 10° NE 04:50:49 13° ENE 04:53:05 10° E visible
11 May 7.1 05:20:22 10° NNE 05:25:00 31° ENE 05:29:36 10° SE visible
12 May 7.8 04:47:38 10° NNE 04:51:10 18° ENE 04:54:42 10° ESE visible
14 May 6.4 05:20:13 10° N 05:25:13 44° E 05:30:10 10° SSE visible
15 May 7.4 04:47:11 10° NNE 04:51:28 25° ENE 04:55:44 10° SE visible
